Location: Gleizolles
(44.4833°N, 6.7667°E)
Time: 13:36:02
(UTC+00:00)

Cosmos 2228 - Pass Details

Date: 09 April 2020
Orbit: 588 x 619 km, 82.5° (Epoch: 26 May)

Event Time Altitude Azimuth Distance (km) Brightness Sun altitude
Rises 19:05:38 0° 190° (S) 2,833 6.3 -10.2°
Reaches altitude 10° 19:07:49 10° 191° (S) 1,940 5.5 -10.6°
Maximum altitude 19:12:07 80° 278° (W) 622 3.1 -11.3°
Drops below altitude 10° 19:16:30 10° 6° (N) 1,976 5.9 -12.0°
Sets 19:18:45 0° 8° (N) 2,890 6.7 -12.3°
